San Francisco, CA

7:36 AM PST on February 23, 2017 (GMT -0800)
San Francisco International

Weather History for KSFO - July, 2014

Change the Weather History Date:

Wednesday, July 16, 2014

  Actual Average Record
Temperature  
Mean Temperature 70 °F 64 °F  
Max Temperature 78 °F 72 °F 87 °F (1988)
Min Temperature 62 °F 55 °F 49 °F (1949)
Degree Days  
Heating Degree Days 0 2  
Month to date heating degree days 19 32  
Since 1 June heating degree days 68 137  
Since 1 July heating degree days 19 32  
Cooling Degree Days 5 1  
Month to date cooling degree days 23 16  
Year to date cooling degree days 121 56  
Since 1 June cooling degree days 58 37  
Growing Degree Days 20 (Base 50)    
Moisture  
Dew Point 59 °F    
Average Humidity 74    
Maximum Humidity 93    
Minimum Humidity 54    
Precipitation  
Precipitation 0.00 in 0.00 in 0.01 in (1990)
Month to date precipitation 0.00 0.00  
Year to date precipitation 7.31 13.08  
Since 1 July precipitation 0.00  
Sea Level Pressure  
Sea Level Pressure 30.00 in    
Wind  
Wind Speed 10 mph (WSW)    
Max Wind Speed 22 mph    
Max Gust Speed 29 mph    
Visibility 10 miles    
Events      
T = Trace of Precipitation, MM = Missing Value Source: NWS Daily Summary

Daily Weather History Graph

Daily Weather History Graph

Search for Another Location

Airport or City:

Trip Planner

Search our weather history database for the weather conditions in past years. The results will help you decide how hot, cold, wet, or windy it might be!

Date:

Astronomy

Jul. 16, 2014 Rise Set
Actual Time 6:00 AM PDT 8:29 PM PDT
Civil Twilight 5:30 AM PDT 9:00 PM PDT
Nautical Twilight 4:53 AM PDT 9:37 PM PDT
Astronomical Twilight 4:11 AM PDT 10:18 PM PDT
Moon 11:24 PM PDT (7/16) 11:04 AM PDT (7/16)
Length of Visible Light 15h 29m
Length of Day
14h 29m
Waning Gibbous, 75% of the Moon is Illuminated
Jul 16
Waning Gibbous
Jul 18
Last Quarter
Jul 26
New
Aug 3
First Quarter
Aug 10
Full

Hourly Weather History & Observations

Time (PDT) Temp. Dew Point Humidity Pressure Visibility Wind Dir Wind Speed Gust Speed Precip Events Conditions
12:56 AM 64.9 °F 60.1 °F 84% 29.97 in 10.0 mi WNW 12.7 mph - N/A   Mostly Cloudy
1:56 AM 64.9 °F 60.1 °F 84% 29.97 in 10.0 mi WNW 13.8 mph - N/A   Mostly Cloudy
2:56 AM 63.0 °F 60.1 °F 90% 29.98 in 10.0 mi WNW 9.2 mph - N/A   Mostly Cloudy
3:56 AM 64.0 °F 60.1 °F 87% 29.98 in 10.0 mi West 11.5 mph - N/A   Mostly Cloudy
4:56 AM 62.1 °F 59.0 °F 90% 29.99 in 10.0 mi WNW 9.2 mph - N/A   Mostly Cloudy
5:56 AM 63.0 °F 60.1 °F 90% 30.01 in 10.0 mi South 6.9 mph - N/A   Mostly Cloudy
6:56 AM 64.0 °F 59.0 °F 84% 30.02 in 10.0 mi SSW 8.1 mph - N/A   Mostly Cloudy
7:56 AM 64.9 °F 57.9 °F 78% 30.03 in 10.0 mi SSW 11.5 mph - N/A   Mostly Cloudy
8:56 AM 64.9 °F 59.0 °F 81% 30.04 in 10.0 mi South 8.1 mph - N/A   Mostly Cloudy
9:56 AM 66.9 °F 59.0 °F 76% 30.03 in 10.0 mi South 9.2 mph - N/A   Mostly Cloudy
10:56 AM 71.1 °F 59.0 °F 66% 30.02 in 10.0 mi South 5.8 mph - N/A   Mostly Cloudy
11:56 AM 75.9 °F 61.0 °F 60% 30.02 in 10.0 mi North 9.2 mph - N/A   Mostly Cloudy
12:56 PM 73.0 °F 63.0 °F 71% 30.01 in 9.0 mi NNE 9.2 mph - N/A   Mostly Cloudy
1:56 PM 75.0 °F 62.1 °F 64% 30.01 in 10.0 mi ENE 5.8 mph - N/A   Scattered Clouds
2:56 PM 77.0 °F 59.0 °F 54% 30.00 in 10.0 mi WSW 10.4 mph - N/A   Scattered Clouds
3:56 PM 75.0 °F 59.0 °F 57% 29.99 in 10.0 mi WSW 12.7 mph - N/A   Scattered Clouds
4:56 PM 73.0 °F 59.0 °F 61% 29.99 in 10.0 mi SW 17.3 mph 25.3 mph N/A   Scattered Clouds
5:56 PM 71.1 °F 57.9 °F 63% 29.98 in 10.0 mi WSW 15.0 mph 25.3 mph N/A   Scattered Clouds
6:56 PM 70.0 °F 57.0 °F 63% 29.98 in 10.0 mi SW 16.1 mph 26.5 mph N/A   Scattered Clouds
7:56 PM 68.0 °F 57.0 °F 68% 29.98 in 10.0 mi WSW 12.7 mph - N/A   Scattered Clouds
8:56 PM 66.0 °F 57.0 °F 73% 29.99 in 10.0 mi WSW 13.8 mph - N/A   Scattered Clouds
9:56 PM 64.9 °F 57.0 °F 75% 30.00 in 10.0 mi WSW 11.5 mph - N/A   Partly Cloudy
10:56 PM 64.9 °F 57.0 °F 75% 30.00 in 10.0 mi WSW 9.2 mph - N/A   Partly Cloudy
11:56 PM 64.0 °F 57.0 °F 78% 29.99 in 10.0 mi SW 6.9 mph - N/A   Partly Cloudy